Tracking 18843 objects as of 20-November-2017
HD Live streaming from Space Station
objects crossing your sky now

COSMOS 2199

Track COSMOS 2199 now!
10-day predictions
COSMOS 2199 is classified as:


NORAD ID: 22036
Int'l Code: 1992-042C
Perigee: 1,417.6 km
Apogee: 1,434.5 km
Inclination: 82.6 °
Period: 114.2 minutes
Semi major axis: 7797 km
RCS: 1.1455 m2 (large)
Launch date: July 13, 1992
Source: Commonwealth of Independent States (former USSR) (CIS)
Launch site: PLESETSK MISSILE AND SPACE COMPLEX (PKMTR)
aabbcc
Your satellite tracking list
Your tracking list is empty




NASA's NSSDC Master Catalog

Two Line Element Set (TLE):
1 22036U 92042C   17323.88661455 +.00000002 +00000-0 -46610-4 0  9993
2 22036 082.5974 108.1597 0010839 208.4945 266.6943 12.60969552166727
Source of the keplerian elements: AFSPC